Location: Katowice
(50.2611°N, 19.0242°E)
Time: 21:42:35
(UTC+02:00)

Transit 2A Rocket - All Passes

Search period start: 22 August 2019 00:00
Search period end: 01 September 2019 00:00
Orbit: 590 x 913 km, 66.7° (Epoch: 22 August)

Date Brightness Start Highest point End Pass type
(mag) Time Alt. Az. Time Alt. Az. Time Alt. Az.
22 Aug - 00:12:18 10° NNW 00:14:28 12° N 00:16:35 10° NNE visible
22 Aug - 01:56:25 10° NNW 01:59:12 15° NNE 02:01:53 10° NE visible
22 Aug - 03:38:35 10° NNW 03:43:07 41° NE 03:47:20 10° ESE visible
22 Aug - 05:21:27 10° NW 05:25:34 32° WSW 05:29:27 10° S daylight
22 Aug - 18:20:51 10° ESE 18:22:36 11° ESE 18:24:20 10° E daylight
22 Aug - 19:58:42 10° SSW 20:04:21 62° ESE 20:09:32 10° NE daylight
22 Aug - 21:42:16 10° WSW 21:47:15 33° NW 21:51:54 10° NNE visible
22 Aug - 23:28:39 10° NW 23:31:22 14° NNW 23:33:59 10° NNE visible
23 Aug - 01:13:53 10° NNW 01:16:07 13° N 01:18:17 10° NE visible
23 Aug - 02:56:10 10° NNW 03:00:21 29° NE 03:04:15 10° E visible
23 Aug - 04:38:40 10° NW 04:43:13 56° WSW 04:47:29 10° SSE visible
23 Aug - 19:16:38 10° S 19:21:56 40° ESE 19:26:50 10° NE daylight
23 Aug - 20:59:08 10° WSW 21:04:31 46° NW 21:09:29 10° NNE visible
23 Aug - 22:44:56 10° WNW 22:48:18 17° NNW 22:51:31 10° NNE visible
24 Aug - 00:31:08 10° NNW 00:33:00 12° N 00:34:48 10° NNE visible
24 Aug - 02:13:46 10° NNW 02:17:29 21° NNE 02:20:58 10° E visible
24 Aug - 03:56:03 10° NW 04:00:46 88° NE 04:05:08 10° SE visible
24 Aug - 05:40:20 10° WNW 05:42:30 13° WSW 05:44:38 10° SW daylight
24 Aug - 18:35:00 10° SSE 18:39:36 26° ESE 18:43:56 10° ENE daylight
24 Aug - 20:16:14 10° SW 20:21:53 68° NW 20:27:03 10° NNE visible
24 Aug - 22:01:18 10° WNW 22:05:20 21° NNW 22:09:07 10° NNE visible
24 Aug - 23:47:59 10° NNW 23:49:51 12° N 23:51:40 10° NNE visible
25 Aug - 01:31:23 10° NNW 01:34:31 17° NNE 01:37:30 10° ENE visible
25 Aug - 03:13:33 10° NNW 03:18:11 55° NE 03:22:29 10° SE visible
25 Aug - 04:56:46 10° WNW 05:00:21 23° WSW 05:03:47 10° SSW visible
25 Aug - 17:54:01 10° SE 17:57:21 16° ESE 18:00:33 10° ENE daylight
25 Aug - 19:33:38 10° SSW 19:39:19 82° SE 19:44:32 10° NE daylight
25 Aug - 21:17:49 10° W 21:22:26 27° NW 21:26:45 10° NNE visible
25 Aug - 23:04:27 10° NW 23:06:43 13° N 23:08:54 10° NNE visible
26 Aug - 00:48:56 10° NNW 00:51:28 14° NNE 00:53:55 10° NE visible
26 Aug - 02:31:06 10° NNW 02:35:30 36° NE 02:39:35 10° ESE visible
26 Aug - 04:13:48 10° NW 04:18:05 39° WSW 04:22:06 10° S visible
26 Aug - 18:51:20 10° SSW 18:56:51 53° ESE 19:01:56 10° NE daylight
26 Aug - 20:34:32 10° WSW 20:39:38 37° NW 20:44:22 10° NNE visible
26 Aug - 22:20:45 10° NW 22:23:38 15° NNW 22:26:23 10° NNE visible
27 Aug - 00:06:23 10° NNW 00:08:22 12° N 00:10:18 10° NNE visible
27 Aug - 01:48:42 10° NNW 01:52:41 26° NE 01:56:26 10° E visible
27 Aug - 03:31:05 10° NW 03:35:42 67° WSW 03:40:00 10° SSE visible
27 Aug - 18:09:24 10° S 18:14:27 34° ESE 18:19:10 10° NE daylight
27 Aug - 19:51:29 10° WSW 19:56:57 52° NW 20:01:57 10° NNE daylight
27 Aug - 21:37:04 10° WNW 21:40:36 18° NNW 21:43:58 10° NNE visible
27 Aug - 23:23:32 10° NNW 23:25:14 12° N 23:26:54 10° NNE visible
28 Aug - 01:06:19 10° NNW 01:09:47 19° NNE 01:13:04 10° ENE visible
28 Aug - 02:48:31 10° NW 02:53:12 75° NE 02:57:33 10° SE visible
28 Aug - 04:32:19 10° WNW 04:35:05 16° WSW 04:37:46 10° SW visible
28 Aug - 17:27:57 10° SSE 17:32:10 22° ESE 17:36:08 10° ENE daylight
28 Aug - 19:08:41 10° SW 19:14:20 78° NW 19:19:29 10° NE daylight
28 Aug - 20:53:28 10° W 20:57:39 22° NNW 21:01:35 10° NNE visible
28 Aug - 22:40:14 10° NNW 22:42:06 12° N 22:43:55 10° NNE visible
29 Aug - 00:23:55 10° NNW 00:26:47 15° NNE 00:29:32 10° ENE visible
29 Aug - 02:06:03 10° NNW 02:10:35 47° NE 02:14:49 10° ESE visible
29 Aug - 03:49:03 10° NW 03:52:53 27° WSW 03:56:33 10° S visible
29 Aug - 16:47:23 10° SE 16:49:57 13° ESE 16:52:26 10° ENE daylight
29 Aug - 18:26:10 10° SSW 18:31:48 71° ESE 18:36:57 10° NE daylight
29 Aug - 20:10:02 10° W 20:14:48 29° NW 20:19:13 10° NNE visible
29 Aug - 21:56:36 10° NW 21:58:59 13° NNW 22:01:17 10° NNE visible
29 Aug - 23:41:28 10° NNW 23:43:43 13° NNE 23:45:54 10° NE visible
30 Aug - 01:23:37 10° NNW 01:27:51 31° NE 01:31:48 10° ESE visible
30 Aug - 03:06:11 10° NW 03:10:35 46° WSW 03:14:43 10° SSE visible
30 Aug - 17:44:00 10° S 17:49:21 45° ESE 17:54:18 10° NE daylight
30 Aug - 19:26:50 10° WSW 19:32:02 41° NW 19:36:50 10° NNE daylight
30 Aug - 21:12:53 10° NW 21:15:55 15° NNW 21:18:49 10° NNE visible
30 Aug - 22:58:50 10° NNW 23:00:37 12° N 23:02:21 10° NNE visible
31 Aug - 00:41:14 10° NNW 00:45:00 23° NNE 00:48:35 10° E visible
31 Aug - 02:23:32 10° NW 02:28:09 80° SW 02:32:29 10° SSE visible
31 Aug - 04:08:37 10° W 04:09:47 11° WSW 04:10:56 10° WSW visible
31 Aug - 17:02:12 10° S 17:06:59 29° ESE 17:11:28 10° NE daylight
31 Aug - 18:43:52 10° SW 18:49:22 59° NW 18:54:24 10° NNE daylight
31 Aug - 20:29:12 10° WNW 20:32:54 19° NNW 20:36:26 10° NNE visible
31 Aug - 22:15:52 10° NNW 22:17:29 11° N 22:19:03 10° NNE visible
